Weather History for Keahole Point, HI

Change the Weather History Date:

Saturday, July 6, 2013

  Actual Average Record
Temperature  
Mean Temperature 81 °F -  
Max Temperature 84 °F 82 °F 92 °F (1983)
Min Temperature 77 °F 72 °F 69 °F (1984)
Cooling Degree Days 16    
Growing Degree Days 31 (Base 50)    
Moisture  
Dew Point 70 °F    
Average Humidity 71    
Maximum Humidity 79    
Minimum Humidity 63    
Precipitation  
Precipitation 0.00 in - - ()
Sea Level Pressure  
Sea Level Pressure 29.99 in    
Wind  
Wind Speed 6 mph (WSW)    
Max Wind Speed 12 mph    
Max Gust Speed -    
Visibility 10 miles    
Events      
Averages and records for this station are not official NWS values.
T = Trace of Precipitation, MM = Missing Value Source: NWS Daily Summary

Daily Weather History Graph

Daily Weather History Graph

Search for Another Location

Airport:

Trip Planner

Search our weather history database for the weather conditions in past years. The results will help you decide how hot, cold, wet, or windy it might be!

Date:

Astronomy

Jul. 06, 2013 Rise Set
Actual Time 5:50 AM HST 7:07 PM HST
Civil Twilight 5:26 AM HST 7:31 PM HST
Nautical Twilight 4:57 AM HST 8:00 PM HST
Astronomical Twilight 4:27 AM HST 8:30 PM HST
Moon 4:39 AM HST (7/6) 6:04 PM HST (7/6)
Length of Visible Light 14h 05m
Length of Day
13h 16m
Waning Crescent, 2% of the Moon is Illuminated
Jul 6
Waning Crescent
Jul 7
New
Jul 15
First Quarter
Jul 22
Full
Jul 29
Last Quarter

Hourly Weather History & Observations

Time (HST) Temp. Heat Index Dew Point Humidity Pressure Visibility Wind Dir Wind Speed Gust Speed Precip Events Conditions
12:53 AM 78.1 °F - 64.9 °F 64% 30.01 in 10.0 mi SE 8.1 mph - N/A   Overcast
1:53 AM 78.1 °F - 66.9 °F 68% 30.00 in 10.0 mi ESE 5.8 mph - N/A   Overcast
2:53 AM 78.1 °F - 68.0 °F 71% 29.99 in 10.0 mi East 3.5 mph - N/A   Overcast
3:53 AM 78.1 °F - 69.1 °F 74% 29.98 in 10.0 mi Calm Calm - N/A   Overcast
4:33 AM 78.8 °F - 69.8 °F 74% 29.97 in 10.0 mi West 3.5 mph - N/A   Overcast
4:53 AM 78.1 °F - 70.0 °F 76% 29.97 in 10.0 mi West 4.6 mph - N/A   Overcast
5:00 AM 78.8 °F - 69.8 °F 74% 29.97 in 10.0 mi West 5.8 mph - N/A   Overcast
5:53 AM 78.1 °F - 70.0 °F 76% 29.98 in 10.0 mi West 4.6 mph - N/A   Overcast
6:53 AM 78.1 °F - 71.1 °F 79% 30.00 in 10.0 mi WSW 5.8 mph - N/A   Overcast
7:20 AM 78.8 °F - 71.6 °F 78% 30.00 in 10.0 mi WSW 6.9 mph - N/A   Overcast
7:53 AM 79.0 °F - 70.0 °F 74% 30.02 in 10.0 mi WSW 6.9 mph - N/A   Overcast
8:53 AM 79.0 °F - 70.0 °F 74% 30.02 in 10.0 mi ESE 4.6 mph - N/A   Overcast
9:39 AM 80.6 °F 83.9 °F 69.8 °F 70% 30.02 in 10.0 mi SW 4.6 mph - N/A   Overcast
9:53 AM 80.1 °F 83.2 °F 70.0 °F 71% 30.02 in 10.0 mi SSW 4.6 mph - N/A   Overcast
10:17 AM 80.6 °F 84.6 °F 71.6 °F 74% 30.02 in 10.0 mi WSW 8.1 mph - N/A   Overcast
10:53 AM 81.0 °F 84.9 °F 71.1 °F 72% 30.02 in 10.0 mi WSW 8.1 mph - N/A   Mostly Cloudy
11:53 AM 82.0 °F 85.9 °F 70.0 °F 67% 30.01 in 10.0 mi West 10.4 mph - N/A   Overcast
12:53 PM 81.0 °F 84.4 °F 70.0 °F 69% 30.00 in 10.0 mi West 10.4 mph - N/A   Overcast
1:53 PM 82.9 °F 87.0 °F 70.0 °F 65% 29.99 in 10.0 mi West 10.4 mph - N/A   Overcast
2:53 PM 84.0 °F 88.4 °F 70.0 °F 63% 29.98 in 10.0 mi West 11.5 mph - N/A   Mostly Cloudy
3:53 PM 82.0 °F 85.9 °F 70.0 °F 67% 29.97 in 10.0 mi West 10.4 mph - N/A   Overcast
4:01 PM 82.4 °F 86.3 °F 69.8 °F 66% 29.96 in 10.0 mi West 10.4 mph - N/A   Overcast
4:17 PM 82.4 °F 86.3 °F 69.8 °F 66% 29.96 in 10.0 mi West 11.5 mph - N/A   Overcast
4:53 PM 82.9 °F 87.0 °F 70.0 °F 65% 29.96 in 10.0 mi WSW 10.4 mph - N/A   Scattered Clouds
5:53 PM 82.0 °F 85.9 °F 70.0 °F 67% 29.96 in 10.0 mi West 8.1 mph - N/A   Partly Cloudy
6:53 PM 80.1 °F 83.2 °F 70.0 °F 71% 29.97 in 10.0 mi West 6.9 mph - N/A   Partly Cloudy
7:19 PM 80.6 °F 83.9 °F 69.8 °F 70% 29.97 in 10.0 mi West 6.9 mph - N/A   Mostly Cloudy
7:42 PM 80.6 °F 83.9 °F 69.8 °F 70% 29.98 in 10.0 mi WNW 5.8 mph - N/A   Scattered Clouds
7:53 PM 79.0 °F - 70.0 °F 74% 29.99 in 10.0 mi WNW 4.6 mph - N/A   Partly Cloudy
8:53 PM 79.0 °F - 70.0 °F 74% 30.00 in 10.0 mi NNW 3.5 mph - N/A   Scattered Clouds
9:53 PM 79.0 °F - 69.1 °F 72% 30.01 in 10.0 mi Calm Calm - N/A   Overcast
10:53 PM 78.1 °F - 69.1 °F 74% 30.01 in 10.0 mi East 4.6 mph - N/A   Mostly Cloudy
11:53 PM 77.0 °F - 68.0 °F 74% 30.00 in 10.0 mi ESE 4.6 mph - N/A   Clear